User: anonymous   Login
Location: Saint Peter Port
(49.4500°N, 2.5330°W)
Time: 20:56:47
(UTC+01:00)
Language:

Cosmos 2242 Rocket - Orbit

View from above orbital plane
View from above orbital plane
View from above satellite
View from above satellite

Ground track
Ground track

The orbit data is extracted from the following two-line orbital elements,

1 22627U 93024B   16126.40812372  .00000128  00000-0  14536-4 0  9994
2 22627  82.5200 118.7885 0022469 221.1744 250.3667 14.78020680241912
Epoch (UTC): 05 May 2016 09:47:41
Eccentricity: 0.0022469
inclination: 82.5200°
perigee height: 620 km
apogee height: 651 km
right ascension of ascending node: 118.7885°
argument of perigee: 221.1744°
revolutions per day: 14.78020680
mean anomaly at epoch: 250.3667°
orbit number at epoch: 24191

The dashed part of the orbit path shows where the satellite is in the earth's shadow,  

DLR